Location: Proctor
(47.8934°N, 114.3048°W)
Time: 11:28:48
(UTC+00:00)

Transit 4A - Pass Details

Date: 29 June 2024
Orbit: 870 x 973 km, 66.8° (Epoch: 13 July)

Event Time Altitude Azimuth Distance (km) Brightness Sun altitude
Rises 04:08:57 0° 198° (SSW) 3,457 10.6 -4.5°
Reaches altitude 10° 04:11:27 10° 195° (SSW) 2,516 9.9 -4.8°
Maximum altitude 04:17:07 57° 118° (ESE) 1,021 7.9 -5.5°
Drops below altitude 10° 04:22:48 10° 41° (NE) 2,530 10.3 -6.2°
Sets 04:25:20 0° 38° (NE) 3,479 11.0 -6.5°
